User: anonymous
Location: Radomski Observatory
(40.2854°N, 79.5145°W)
Time: 08:42:53
(UTC-04:00)
Language:

Uosat F - Orbit

View from above orbital plane
View from above orbital plane
View from above satellite
View from above satellite

Ground track
Ground track

The orbit data is extracted from the following two-line orbital elements,

1 21575U 91050B   14210.10236767  .00000143  00000-0  59420-4 0   729
2 21575 098.7025 187.0098 0007325 188.6858 305.1835 14.40401004209517
Epoch (UTC): 29 July 2014 02:27:24
Eccentricity: 0.0007325
inclination: 98.7025°
perigee height: 752 km
apogee height: 762 km
right ascension of ascending node: 187.0098°
argument of perigee: 188.6858°
revolutions per day: 14.40401004
mean anomaly at epoch: 305.1835°
orbit number at epoch: 20951

The dashed part of the orbit path shows where the satellite is in the earth's shadow,  

DLR